Showing default

ITASAT, 43786

Orbit data source: Space-Track

ITASAT, 43786 is a payload satellite owned by ITA (BR) in SSO that was launched on Mon, 03 Dec 2018 UTC via an FALCON 9 launch vehicle from the Air Force Western Test Range (AFWTR). Payload-class satellites include a variety of spacecraft equipped with specific instruments for various scientific and technological missions. These include communications satellites like Starlink; space stations such as the ISS; scientific satellites like the Hubble; Earth observation satellites from companies like Planet Labs, Umbra, and HawkEye 360; GPS; miniature CubeSats for education and research; and military/defense satellites.

Loading next visibility...
Identifier
43786, 2018-099AE
Orbit
SSO
Last TLE update
16 hours ago
Origin
Manufacturer
ITA
Mission
Operational Civil Technology
Bus & Motor
CUBESAT 6U, Unknown motor
Mass
8 kg wet, 8 kg dry
Launch date (UTC)
2018-12-03 (7 years ago)
Launch vehicle
FALCON 9
Launch site
Air Force Western Test Range (AFWTR)
Object type
Payload
Rocket body
Debris
Shape & HBR
Box, 0.3 m
Radar Cross Section
0.080 m², Medium (>0.1 m² and < 1m²)

Expand to show TLE details & history

TLE from 16 hours ago
0 ITASAT
1 43786U 18099AE  25181.70868787  .00004351  00000-0  24844-3 0  9991
2 43786  97.4548 235.5896 0015694 130.3222 229.9383 15.13141662359657
Epoch: 2025-06-30T17:00Z
TLE epoch observation values (Epoch: 2025-06-30T17:00:30.631Z)
Latitude
-0.00008°
Longitude
61.44737°
Altitude
536.692 km
Speed
7.59 km/s
True Right ascension
15h 42m 21s
True Declination
0° 00' 00"
Sunlit
Object was in full shadow at epoch
Visualization orbit readout
Latitude
79.90011°
Longitude
-70.95524°
Altitude
530.672 km
Speed
7.61 km/s
Apparent Right ascension
08h 32m 35s
Apparent Declination
24° 23' 46"
Sunlit
Object is in daylight
Visualization observer readout
Local Sidereal Time
20:56:37
Azimuth
6.06° NNE
Elevation
-25.444°
Doppler factor
1
Orbital elements
Apogee altitude
534.435 km
Perigee altitude
512.772 km
Semi-major axis
6,901.74 km
Eccentricity
0.00157
Inclination
97.4548°
RAAN
235.5896°
Arg. of periapsis
130.3222°
True anomaly
Unknown
Mean anomaly
229.9383°
Eccentric anomaly
Unknown
Mean motion
3.78534 °/min
Orbital period
95.1 mins
BSTAR
0.00024844
Loading maneuver chart data...
Loading SW <> Apogee altitude chart data...
Loading historical data...
Loading historical data...
Loading historical data...
Loading historical data...
Loading historical data...
Loading historical data...
Loading historical data...

ITASAT Visibility forecast

Observer location: undefined°, undefined°

Span
Click to sort rows by Start time (UTC) header in descending order
Start Az.
Max El. time (UTC)
Max El. Az.
Max El.
End time (UTC)
End Az.
5 mins2025-07-01 15:48:21.842Z44.478° NE2025-07-01 15:51:21.842Z109.409° ESE22.965°2025-07-01 15:53:21.842Z147.27° SSE
4 mins2025-07-01 17:23:21.842Z323.611° NNW2025-07-01 17:25:21.842Z283.007° WNW18.047°2025-07-01 17:27:21.842Z248.469° W
6 mins2025-07-02 04:03:21.842Z196.14° SSW2025-07-02 04:06:21.842Z282.108° WNW32.817°2025-07-02 04:09:21.842Z332.874° NNW
|